This demonstration page uses our WeatherBlox Daily Observations layout. Learn more.

Left ArrowRight Arrow

Hourly Observations for May 13, 2020

Temp ( °F °C ) Dew Point ( °F °C ) Humidity (%) Winds ( mph kmh ) Pressure ( in mb ) Visibility ( mi km ) Precip ( " mm )
12:52 am 00:52 Cloudy 49 9.4 48 8.9 97 97 SE 13 20 30.08 1019 10 16 0.00 0.00
1:52 am 01:52 Cloudy 49 9.4 48 8.9 97 97 SSE 14 22 30.06 1018 10 16 0.00 0.00
2:52 am 02:52 Cloudy 49 9.4 48 8.9 97 97 SSE 13 20 30.04 1017 10 16 0.00 0.00
3:52 am 03:52 Cloudy 49 9.4 48 8.9 97 97 SE 10 17 30.04 1017 10 16 0.00 0.00
4:52 am 04:52 Cloudy with Light Rain 49 9.4 48 8.9 97 97 SE 9 15 30.04 1017 10 16 0.02 0.51
5:52 am 05:52 Cloudy with Light Rain 49 9.4 49 9.4 100 100 SSE 8 13 30.04 1017 9 14 0.00 0.00
6:52 am 06:52 Cloudy 50 10 49 9.4 96 96 SSE 12 19 30.05 1018 10 16 0.00 0.00
7:19 am 07:19 Cloudy with Light Rain 50 10 49 9.4 96 96 SSE 13 20 30.06 1018 9 14 0.00 0.00
7:49 am 07:49 Cloudy 52 11 50 10 94 94 SSE 10 17 30.06 1018 10 16 0.01 0.25
7:52 am 07:52 Cloudy 51 10.6 50 10 96 96 SSE 12 19 30.05 1018 10 16 0.01 0.25
8:14 am 08:14 Cloudy 51 10.6 50 10 96 96 SSE 12 19 30.06 1018 10 16 0.00 0.00
8:26 am 08:26 Cloudy with Light Rain 51 10.6 50 10 96 96 SE 15 24 30.05 1018 10 16 0.00 0.00
8:52 am 08:52 Cloudy 51 10.6 51 10.6 100 100 SE 10 17 30.04 1017 10 16 0.00 0.00
9:52 am 09:52 Cloudy 53 11.7 52 11.1 96 96 SSE 10 17 30.06 1018 10 16 0.00 0.00
10:52 am 10:52 Cloudy 54 12.2 53 11.7 97 97 SSE 15 24 30.05 1018 10 16 0.00 0.00
11:52 am 11:52 Cloudy 57 13.9 55 12.8 93 93 SSE 9 15 30.04 1017 10 16 0.00 0.00
12:52 pm 12:52 Cloudy 59 15 56 13.3 90 90 SSE 10 17 30.02 1017 10 16 0.00 0.00
1:04 pm 13:04 Cloudy 60 15.6 57 13.9 90 90 SSE 12 19 30.00 1016 10 16 0.00 0.00
1:52 pm 13:52 Cloudy 62 16.7 58 14.4 86 86 SSE 12 19 30.00 1016 10 16 0.00 0.00
2:35 pm 14:35 Mostly Cloudy 63 17.2 59 15 87 87 S 9 15 30.00 1016 10 16 0.00 0.00
2:52 pm 14:52 Mostly Cloudy 62 16.7 59 15 90 90 S 8 13 30.00 1016 10 16 0.00 0.00
3:17 pm 15:17 Mostly Cloudy with Light Rain 62 16.7 59 15 90 90 SSW 5 7 30.00 1016 10 16 0.00 0.00
3:52 pm 15:52 Cloudy with Light Rain 62 16.7 60 15.6 93 93 W 5 7 30.01 1016 7 11 0.02 0.51
4:52 pm 16:52 Cloudy 63 17.2 61 16.1 93 93 SSE 6 9 30.01 1016 10 16 0.00 0.00
5:52 pm 17:52 Sunny 64 17.8 61 16.1 90 90 SE 12 19 29.97 1015 9 14 0.00 0.00
6:52 pm 18:52 Sunny 67 19.4 62 16.7 84 84 S 20 31 29.88 1012 10 16 0.00 0.00
7:52 pm 19:52 Sunny 66 18.9 63 17.2 90 90 S 18 30 29.86 1011 10 16 0.00 0.00
8:52 pm 20:52 Clear 66 18.9 63 17.2 90 90 SSE 16 26 29.88 1012 10 16 0.00 0.00
9:52 pm 21:52 Clear 66 18.9 63 17.2 90 90 SSE 15 24 29.88 1012 10 16 0.00 0.00
10:52 pm 22:52 Clear 67 19.4 62 16.7 84 84 SSE 22 35 29.85 1011 10 16 0.00 0.00
11:52 pm 23:52 Clear 66 18.9 62 16.7 87 87 S 16 26 29.88 1012 10 16 0.00 0.00

Powered by AerisWeather